Weather History for Pittsfield, IL

Change the Weather History Date:

Thursday, January 24, 2013

  Actual Average (KUIN) Record (KUIN)
Temperature  
Mean Temperature 18 °F 27 °F  
Max Temperature 25 °F 35 °F 73 °F (1950)
Min Temperature 12 °F 18 °F -10 °F (1963)
Degree Days  
Heating Degree Days 46 39  
Month to date heating degree days 932  
Since 1 July heating degree days 3123  
Cooling Degree Days 0 0  
Month to date cooling degree days 0  
Year to date cooling degree days 0  
Moisture  
Dew Point 6 °F    
Average Humidity 55    
Maximum Humidity 69    
Minimum Humidity 43    
Precipitation  
Precipitation 0.00 in 0.05 in 2.93 in (1938)
Month to date precipitation 1.19  
Year to date precipitation 1.19  
Sea Level Pressure  
Sea Level Pressure 30.47 in    
Wind  
Wind Speed 11 mph (ENE)    
Max Wind Speed 18 mph    
Max Gust Speed 22 mph    
Visibility 10 miles    
Events      
T = Trace of Precipitation, MM = Missing Value Source: NWS Daily Summary

Daily Weather History Graph

Daily Weather History Graph

Search for Another Location

Airport:

Trip Planner

Search our weather history database for the weather conditions in past years. The results will help you decide how hot, cold, wet, or windy it might be!

Date:

Astronomy

Jan. 24, 2013 Rise Set
Actual Time 7:17 AM CST 5:13 PM CST
Civil Twilight 6:48 AM CST 5:42 PM CST
Nautical Twilight 6:15 AM CST 6:15 PM CST
Astronomical Twilight 5:43 AM CST 6:47 PM CST
Moon 3:16 PM CST (1/24) 5:14 AM CST (1/24)
Length of Visible Light 10h 54m
Length of Day
9h 56m
Waxing Gibbous, 94% of the Moon is Illuminated
Jan 24
Waxing Gibbous
Jan 26
Full
Feb 3
Last Quarter
Feb 10
New
Feb 17
First Quarter

Hourly Weather History & Observations

Time (CST) Temp. Windchill Dew Point Humidity Pressure Visibility Wind Dir Wind Speed Gust Speed Precip Events Conditions
12:15 AM 19.4 °F 6.0 °F 5.7 °F 55% 30.41 in 10.0 mi NNW 13.8 mph 21.9 mph N/A   Scattered Clouds
12:35 AM 18.5 °F 2.9 °F 5.4 °F 57% 30.42 in 10.0 mi NNW 18.4 mph 21.9 mph N/A   Scattered Clouds
12:55 AM 17.8 °F 2.4 °F 6.3 °F 61% 30.44 in 10.0 mi NNW 17.3 mph - N/A   Clear
1:15 AM 17.2 °F 5.2 °F 6.1 °F 62% 30.45 in 10.0 mi NNW 10.4 mph - N/A   Clear
1:35 AM 16.7 °F 3.8 °F 5.9 °F 63% 30.46 in 10.0 mi NNW 11.5 mph 19.6 mph N/A   Clear
1:55 AM 16.2 °F 3.9 °F 5.9 °F 64% 30.47 in 10.0 mi North 10.4 mph 16.1 mph N/A   Clear
2:15 AM 16.2 °F 3.9 °F 5.2 °F 62% 30.48 in 10.0 mi North 10.4 mph 18.4 mph N/A   Clear
2:35 AM 15.6 °F 4.0 °F 4.8 °F 62% 30.49 in 10.0 mi North 9.2 mph - N/A   Clear
2:55 AM 15.3 °F 3.5 °F 4.6 °F 63% 30.48 in 10.0 mi North 9.2 mph 17.3 mph N/A   Clear
3:15 AM 14.7 °F 2.1 °F 4.8 °F 65% 30.50 in 10.0 mi North 10.4 mph - N/A   Clear
3:35 AM 14.4 °F 1.6 °F 5.0 °F 66% 30.50 in 10.0 mi North 10.4 mph - N/A   Clear
3:55 AM 14.0 °F 2.9 °F 4.8 °F 67% 30.51 in 10.0 mi North 8.1 mph - N/A   Clear
4:15 AM 14.0 °F 2.0 °F 4.6 °F 66% 30.51 in 10.0 mi North 9.2 mph - N/A   Clear
4:35 AM 13.8 °F 1.8 °F 4.8 °F 67% 30.52 in 10.0 mi North 9.2 mph - N/A   Clear
4:55 AM 13.6 °F 1.6 °F 4.8 °F 68% 30.53 in 10.0 mi North 9.2 mph - N/A   Clear
5:15 AM 13.5 °F 2.2 °F 5.0 °F 69% 30.54 in 10.0 mi North 8.1 mph - N/A   Clear
5:35 AM 13.5 °F 3.3 °F 5.0 °F 69% 30.55 in 10.0 mi North 6.9 mph - N/A   Clear
5:55 AM 13.1 °F 0.1 °F 4.5 °F 68% 30.55 in 10.0 mi NNE 10.4 mph - N/A   Scattered Clouds
6:15 AM 13.1 °F 1.8 °F 3.4 °F 65% 30.55 in 10.0 mi NNE 8.1 mph - N/A   Scattered Clouds
6:35 AM 13.1 °F 0.9 °F 2.7 °F 63% 30.55 in 10.0 mi NNE 9.2 mph - N/A   Clear
6:55 AM 12.9 °F 0.7 °F 2.3 °F 63% 30.56 in 10.0 mi NE 9.2 mph - N/A   Clear
7:15 AM 12.7 °F -1.1 °F 2.1 °F 63% 30.56 in 10.0 mi NNE 11.5 mph - N/A   Clear
7:35 AM 12.6 °F 1.1 °F 2.1 °F 63% 30.57 in 10.0 mi NNE 8.1 mph - N/A   Scattered Clouds
7:55 AM 12.6 °F 2.2 °F 2.5 °F 64% 30.57 in 10.0 mi NE 6.9 mph - N/A   Clear
8:15 AM 12.9 °F 1.6 °F 2.7 °F 64% 30.57 in 10.0 mi NE 8.1 mph - N/A   Clear
8:35 AM 13.1 °F 2.8 °F 2.3 °F 62% 30.59 in 10.0 mi NE 6.9 mph - N/A   Clear
8:55 AM 13.6 °F 2.5 °F 2.3 °F 61% 30.62 in 10.0 mi NE 8.1 mph - N/A   Clear
9:15 AM 14.0 °F 3.9 °F 2.3 °F 60% 30.62 in 10.0 mi NE 6.9 mph - N/A   Clear
9:35 AM 15.1 °F 6.4 °F 2.3 °F 57% 30.62 in 10.0 mi East 5.8 mph - N/A   Clear
9:55 AM 15.6 °F 4.0 °F 2.5 °F 56% 30.61 in 10.0 mi NE 9.2 mph - N/A   Clear
10:15 AM 15.6 °F 4.9 °F 1.9 °F 55% 30.62 in 10.0 mi ENE 8.1 mph - N/A   Clear
10:35 AM 16.5 °F 5.1 °F 2.3 °F 54% 30.61 in 10.0 mi ENE 9.2 mph - N/A   Clear
10:55 AM 17.2 °F 7.8 °F 2.1 °F 52% 30.61 in 10.0 mi NE 6.9 mph - N/A   Clear
11:15 AM 18.1 °F 7.9 °F 1.8 °F 49% 30.60 in 10.0 mi ENE 8.1 mph - N/A   Clear
11:35 AM 19.0 °F 10.0 °F 2.8 °F 49% 30.58 in 10.0 mi East 6.9 mph - N/A   Clear
11:55 AM 19.0 °F 8.2 °F 2.7 °F 49% 30.57 in 10.0 mi East 9.2 mph - N/A   Clear
12:15 PM 19.2 °F 7.7 °F 2.8 °F 49% 30.55 in 10.0 mi East 10.4 mph 16.1 mph N/A   Clear
12:35 PM 20.1 °F 8.1 °F 2.8 °F 47% 30.54 in 10.0 mi East 11.5 mph - N/A   Clear
12:55 PM 20.1 °F 8.1 °F 3.2 °F 48% 30.53 in 10.0 mi East 11.5 mph - N/A   Clear
1:15 PM 21.2 °F 10.1 °F 3.9 °F 47% 30.50 in 10.0 mi ESE 10.4 mph - N/A   Clear
1:35 PM 23.4 °F 11.6 °F 4.3 °F 44% 30.48 in 10.0 mi East 12.7 mph - N/A   Clear
1:55 PM 23.0 °F 11.7 °F 4.3 °F 45% 30.48 in 10.0 mi East 11.5 mph - N/A   Clear
2:15 PM 23.7 °F 12.1 °F 5.2 °F 45% 30.48 in 10.0 mi ESE 12.7 mph 18.4 mph N/A   Clear
2:35 PM 24.6 °F 15.1 °F 5.5 °F 44% 30.48 in 10.0 mi East 9.2 mph - N/A   Clear
2:55 PM 24.8 °F 13.4 °F 5.5 °F 44% 30.45 in 10.0 mi ESE 12.7 mph 19.6 mph N/A   Clear
3:15 PM 25.2 °F 12.9 °F 5.5 °F 43% 30.45 in 10.0 mi East 15.0 mph 19.6 mph N/A   Clear
3:35 PM 24.4 °F 14.2 °F 5.9 °F 45% 30.45 in 10.0 mi ESE 10.4 mph - N/A   Clear
3:55 PM 24.6 °F 12.7 °F 5.9 °F 45% 30.43 in 10.0 mi East 13.8 mph - N/A   Clear
4:15 PM 24.8 °F 14.6 °F 6.3 °F 45% 30.44 in 10.0 mi ESE 10.4 mph - N/A   Clear
4:35 PM 25.2 °F 12.9 °F 6.4 °F 45% 30.41 in 10.0 mi East 15.0 mph 18.4 mph N/A   Clear
4:55 PM 24.3 °F 14.6 °F 6.6 °F 47% 30.41 in 10.0 mi ESE 9.2 mph 17.3 mph N/A   Clear
5:15 PM 23.9 °F 11.2 °F 7.2 °F 49% 30.40 in 10.0 mi ESE 15.0 mph - N/A   Clear
5:35 PM 23.9 °F 11.7 °F 7.7 °F 50% 30.38 in 10.0 mi ESE 13.8 mph - N/A   Clear
5:55 PM 24.1 °F 13.7 °F 7.7 °F 50% 30.39 in 10.0 mi ESE 10.4 mph - N/A   Clear
6:15 PM 23.9 °F 12.3 °F 8.1 °F 51% 30.38 in 10.0 mi ESE 12.7 mph - N/A   Clear
6:35 PM 23.9 °F 13.5 °F 8.6 °F 52% 30.38 in 10.0 mi East 10.4 mph - N/A   Clear
6:55 PM 24.3 °F 14.6 °F 8.8 °F 52% 30.38 in 10.0 mi ESE 9.2 mph - N/A   Clear
7:15 PM 24.4 °F 14.9 °F 9.1 °F 52% 30.40 in 10.0 mi SE 9.2 mph - N/A   Clear
7:35 PM 24.3 °F 13.3 °F 9.7 °F 54% 30.38 in 10.0 mi ESE 11.5 mph - N/A   Clear
7:55 PM 24.4 °F 13.5 °F 9.5 °F 53% 30.36 in 10.0 mi ESE 11.5 mph - N/A   Clear
8:15 PM 24.4 °F 13.0 °F 9.7 °F 53% 30.34 in 10.0 mi ESE 12.7 mph 17.3 mph N/A   Clear
8:35 PM 24.3 °F 12.7 °F 10.2 °F 55% 30.31 in 10.0 mi ESE 12.7 mph 18.4 mph N/A   Clear
8:55 PM 24.4 °F 14.2 °F 10.4 °F 55% 30.31 in 10.0 mi ESE 10.4 mph - N/A   Scattered Clouds
9:15 PM 24.6 °F 13.2 °F 10.6 °F 55% 30.30 in 10.0 mi SE 12.7 mph - N/A   Overcast
9:35 PM 24.8 °F 11.9 °F 10.4 °F 54% 30.28 in 10.0 mi SE 16.1 mph 21.9 mph N/A   Overcast
9:55 PM 24.8 °F 13.4 °F 10.0 °F 54% 30.26 in 10.0 mi SE 12.7 mph - N/A   Mostly Cloudy
10:15 PM 25.3 °F 16.0 °F 9.5 °F 51% 30.31 in 10.0 mi SE 9.2 mph - N/A   Overcast
10:35 PM 25.5 °F 15.5 °F 9.7 °F 51% 30.32 in 10.0 mi ESE 10.4 mph - N/A   Overcast
10:55 PM 25.5 °F 17.8 °F 10.0 °F 52% 30.31 in 10.0 mi ESE 6.9 mph - N/A   Overcast
11:15 PM 25.7 °F 16.4 °F 10.4 °F 52% 30.30 in 10.0 mi SE 9.2 mph - N/A   Overcast
11:35 PM 25.7 °F 16.4 °F 10.8 °F 53% 30.28 in 10.0 mi ESE 9.2 mph - N/A   Overcast
11:55 PM 25.7 °F 17.1 °F 10.8 °F 53% 30.27 in 10.0 mi ESE 8.1 mph - N/A   Overcast